Location: 433rd Scouts Home(Lloyd Manor Park, Etobicoke )
(43.6722°N, 79.5542°W)
Time: 20:24:53
(UTC-04:00)

Nauka - Pass Details

Date: 04 October 2021
Orbit: 417 x 423 km, 51.6° (Epoch: 24 October)

Event Time Altitude Azimuth Distance (km) Brightness Sun altitude
Rises 21:21:41 0° 285° (WNW) 2,363 ? -27.2°
Reaches altitude 10° 21:24:53 10° 252° (WSW) 1,496 ? -27.8°
Enters shadow 21:25:31 11° 241° (WSW) 1,418 ? -27.9°
